Other Public Products
Issued by NWS Charleston, SC

Current Version | Previous Version | Graphics & Text | Print | Product List | Glossary On
Versions: 1 2 3 4 5 6 7 8 9 10 11 12 13 14 15 16 17 18 19 20 21 22 23 24 25 26 27 28 29 30 31 32 33 34 35 36 37 38 39 40 41 42 43 44 45 46 47 48 49 50
000 FPUS82 KCHS 152027 OPUCHS TEST...KCHS/KSAV Gateway Observations...TEST National Weather Service Charleston SC 300 PM EST FRI DEC 15 2017 NOTE: "fair" indicates few or no clouds below 12,000 feet with no significant weather and/or obstructions to visibility. SCZ050-WAZ558-NCZ071-TXZ119-213-PAZ071-DCZ001-FLZ074-172-MI076- NYZ176-178-MAZ016-IL014-TNZ027-NJZ106-GAZ044-MD014-152100- ...Gateway Observations for Charleston International... CITY SKY/WX TMP DP RH WIND PRES REMARKS Chas Airport CLOUDY 60 40 47 W13 29.97R Seattle CLOUDY 43 38 82 S10 30.18F Charlotte CLOUDY 46 28 49 W6 29.97R Dallas DFW MOSUNNY 56 23 27 NW12G20 30.24F Dallas Love CLOUDY 54 27 35 NW6 30.25F Philladelphia SNOW 25 21 85 NW6 29.94F VSB 1/2 WCI 18 Wash National FLURRIES 29 24 82 N3 29.96R Baltimore LGT SNOW 26 25 96 CALM 29.93F VSB 3/4 Miami PTSUNNY 77 59 53 SE9 30.06S Detroit LGT SNOW 29 20 69 W20 29.82R WCI 16 Newark LGT SNOW 25 17 72 CALM 29.94F VSB 1 Laguardia LGT SNOW 26 17 68 CALM 29.93F J F K LGT SNOW 26 19 74 W5 29.95F WCI 20 Boston Logan CLOUDY 26 12 55 S8 29.98F WCI 18 Ft. Lauderdale MOSUNNY 76 59 55 SE12 30.05S Chicago O`Hare CLOUDY 32 19 58 W15G22 29.89S WCI 22 Chicago Midway CLOUDY 32 19 58 W14 29.91S WCI 22 Houston Bush CLOUDY 54 34 46 VRB3 30.26F Houston Hobby CLOUDY 53 35 50 N10 30.25F Nashville MOSUNNY 41 21 44 SW6 30.14F Atlanta CLOUDY 39 24 55 NW14 30.08S WCI 31 $$ GAZ044-118-TXZ119-213-NCZ071-DCZ001-MDZ014-506-PAZ021-071-NJZ106- NYZ176-178-MAZ106-OHZ011-021-055-MIZ076-KYZ091-ILZ014-INZ047- MNZ060-ONZ431-152100- ...Gateway Observations for Savannah International... CITY SKY/WX TMP DP RH WIND PRES REMARKS Savannah Arpt CLOUDY 60 40 47 W16G26 30.02R Atlanta CLOUDY 39 24 55 NW14 30.08S WCI 31 Charlotte CLOUDY 46 28 49 W6 29.97R Dallas DFW MOSUNNY 56 23 27 NW12G20 30.24F Houston Bush CLOUDY 54 34 46 VRB3 30.26F Wash National FLURRIES 29 24 82 N3 29.96R Wash Dulles LGT SNOW 27 24 89 CALM 29.94R VSB 1 Baltimore LGT SNOW 26 25 96 CALM 29.93F VSB 3/4 Philadelphia SNOW 25 21 85 NW6 29.94F VSB 1/2 WCI 18 Newark LGT SNOW 25 17 72 CALM 29.94F VSB 1 Laguardia LGT SNOW 26 17 68 CALM 29.93F J F K LGT SNOW 26 19 74 W5 29.95F WCI 20 Boston CLOUDY 26 12 55 S8 29.98F WCI 18 Pittsburg CLOUDY 28 12 51 W13G20 29.87S WCI 17 Akron FLURRIES 26 15 63 SW17 29.85S WCI 13 Cleveland LGT SNOW 26 21 81 SW16 29.88S BLWGSNOWWCI 14 Cincinnati CLOUDY 32 21 64 SW15 29.98F WCI 22 Columbus CLOUDY 30 19 61 W17G24 29.94S WCI 19 Detroit LGT SNOW 29 20 69 W20 29.82R WCI 16 Chicago O`Hare CLOUDY 32 19 58 W15G22 29.89S WCI 22 Minneapolis CLOUDY 27 20 75 CALM 29.81F Indianapolis CLOUDY 31 20 63 W18 29.99S WCI 19 Toronto Canada LGT SNOW 25 18 74 S7 29.73F WCI 17 $$

USA.gov is the U.S. government's official web portal to all federal, state and local government web resources and services.